WZZ24K LROP-LRIA

Flight info

Callsign WZZ24K
Flight time 0h 49m
Altitude 9000
Route DENAK T74 ISI
Aircraft A20N/M-SDE2E3FGHIRWXY/LB1

Departure

Time 2026-04-14 16:47
Airport Bucharest Henri Coandă International Airport (LROP)

Arrival

Time 2026-04-14 17:36
Airport Iaşi International Airport (LRIA)
Time Latitude Longitude Altitude Speed Heading
2026-04-14 16:22 44.57106 26.07885 322 ft 0 kts 173°
2026-04-14 16:38 44.57119 26.07879 321 ft 2 kts 154°
2026-04-14 16:38 44.57135 26.07873 322 ft 2 kts 184°
2026-04-14 16:38 44.57151 26.07876 322 ft 2 kts 191°
2026-04-14 16:38 44.57167 26.07879 321 ft 2 kts 161°
2026-04-14 16:39 44.57177 26.07870 319 ft 1 kts 107°
2026-04-14 16:42 44.57181 26.07946 322 ft 13 kts 86°
2026-04-14 16:42 44.57190 26.08082 322 ft 16 kts 84°
2026-04-14 16:42 44.57205 26.08243 322 ft 17 kts 82°
2026-04-14 16:42 44.57229 26.08415 322 ft 19 kts 84°
2026-04-14 16:43 44.57261 26.08497 322 ft 9 kts 16°
2026-04-14 16:43 44.57349 26.08486 321 ft 17 kts 354°
2026-04-14 16:43 44.57448 26.08474 321 ft 26 kts 349°
2026-04-14 16:43 44.57498 26.08466 320 ft 8 kts 352°
2026-04-14 16:44 44.57520 26.08462 322 ft 2 kts 353°
2026-04-14 16:44 44.57543 26.08458 321 ft 5 kts 353°
2026-04-14 16:44 44.57586 26.08450 323 ft 7 kts 353°
2026-04-14 16:45 44.57669 26.08508 325 ft 0 kts 78°
2026-04-14 16:46 44.57688 26.08791 321 ft 73 kts 83°
2026-04-14 16:46 44.57769 26.09876 323 ft 146 kts 84°
2026-04-14 16:47 44.57877 26.11411 942 ft 158 kts 85°
2026-04-14 16:47 44.57966 26.12904 1978 ft 149 kts 85°
2026-04-14 16:47 44.58067 26.14392 2695 ft 162 kts 85°
2026-04-14 16:47 44.58191 26.16070 3206 ft 183 kts 85°
2026-04-14 16:48 44.58337 26.17954 3692 ft 205 kts 85°
2026-04-14 16:48 44.58500 26.20045 4197 ft 226 kts 85°
2026-04-14 16:48 44.58677 26.22298 4979 ft 235 kts 85°
2026-04-14 16:48 44.58857 26.24594 5828 ft 240 kts 85°
2026-04-14 16:49 44.59133 26.26948 6551 ft 253 kts 71°
2026-04-14 16:49 44.60119 26.29107 7005 ft 275 kts 41°
2026-04-14 16:49 44.61782 26.30405 7919 ft 274 kts 13°
2026-04-14 16:49 44.63626 26.30853 8955 ft 273 kts
2026-04-14 16:50 44.65517 26.31153 9973 ft 275 kts
2026-04-14 16:50 44.67434 26.31564 10729 ft 286 kts
2026-04-14 16:50 44.69463 26.32144 11069 ft 310 kts
2026-04-14 16:50 44.71637 26.32880 11210 ft 329 kts 11°
2026-04-14 16:51 44.73865 26.33702 11238 ft 330 kts 11°
2026-04-14 16:51 44.76082 26.34541 11241 ft 330 kts 12°
2026-04-14 16:51 44.78298 26.35379 11242 ft 330 kts 12°
2026-04-14 16:51 44.80516 26.36212 11242 ft 330 kts 12°
2026-04-14 16:52 44.82737 26.37042 11243 ft 330 kts 11°
2026-04-14 16:52 44.84938 26.37969 11246 ft 330 kts 13°
2026-04-14 16:52 44.87150 26.38863 11246 ft 330 kts 12°
2026-04-14 16:52 44.89333 26.39723 11243 ft 330 kts 12°
2026-04-14 16:53 44.91541 26.40615 11246 ft 330 kts 13°
2026-04-14 16:53 44.93740 26.41529 11248 ft 330 kts 13°
2026-04-14 16:53 44.95946 26.42463 11247 ft 330 kts 13°
2026-04-14 16:53 44.98148 26.43403 11250 ft 330 kts 13°
2026-04-14 16:54 45.00340 26.44344 11246 ft 330 kts 13°
2026-04-14 16:54 45.02535 26.45287 11245 ft 329 kts 13°
2026-04-14 16:54 45.04727 26.46229 11246 ft 329 kts 14°
2026-04-14 16:54 45.06919 26.47171 11247 ft 330 kts 13°
2026-04-14 16:55 45.09120 26.48119 11250 ft 329 kts 13°
2026-04-14 16:55 45.11298 26.49058 11249 ft 328 kts 13°
2026-04-14 16:55 45.13490 26.50002 11250 ft 329 kts 13°
2026-04-14 16:55 45.15676 26.50944 11248 ft 328 kts 13°
2026-04-14 16:56 45.17862 26.51887 11258 ft 328 kts 13°
2026-04-14 16:56 45.20045 26.52831 11250 ft 327 kts 13°
2026-04-14 16:56 45.22233 26.53776 11244 ft 327 kts 13°
2026-04-14 16:56 45.24411 26.54718 11257 ft 328 kts 13°
2026-04-14 16:57 45.26600 26.55667 11256 ft 328 kts 13°
2026-04-14 16:57 45.28779 26.56612 11247 ft 327 kts 13°
2026-04-14 16:57 45.30929 26.57544 11259 ft 327 kts 13°
2026-04-14 16:57 45.33104 26.58488 11254 ft 328 kts 13°
2026-04-14 16:58 45.35311 26.59447 11257 ft 327 kts 13°
2026-04-14 16:58 45.37462 26.60383 11254 ft 327 kts 13°
2026-04-14 16:58 45.39640 26.61331 11259 ft 327 kts 13°
2026-04-14 16:58 45.41809 26.62276 11257 ft 327 kts 13°
2026-04-14 16:59 45.43987 26.63225 11260 ft 327 kts 13°
2026-04-14 16:59 45.46166 26.64174 11253 ft 327 kts 13°
2026-04-14 16:59 45.48345 26.65125 11256 ft 326 kts 13°
2026-04-14 16:59 45.50520 26.66075 11260 ft 327 kts 13°
2026-04-14 17:00 45.52696 26.67030 11260 ft 327 kts 13°
2026-04-14 17:00 45.54867 26.67979 11253 ft 326 kts 13°
2026-04-14 17:00 45.57045 26.68932 11258 ft 327 kts 13°
2026-04-14 17:00 45.59226 26.69886 11260 ft 328 kts 13°
2026-04-14 17:01 45.61407 26.70842 11255 ft 327 kts 13°
2026-04-14 17:01 45.63552 26.71781 11259 ft 326 kts 13°
2026-04-14 17:01 45.65750 26.72747 11254 ft 327 kts 13°
2026-04-14 17:01 45.67899 26.73692 11259 ft 327 kts 13°
2026-04-14 17:02 45.70079 26.74653 11253 ft 327 kts 13°
2026-04-14 17:02 45.72251 26.75610 11252 ft 327 kts 13°
2026-04-14 17:02 45.74455 26.76575 11249 ft 327 kts 13°
2026-04-14 17:02 45.76632 26.77534 11250 ft 327 kts 13°
2026-04-14 17:03 45.78773 26.78483 11253 ft 326 kts 13°
2026-04-14 17:03 45.80968 26.79455 11245 ft 326 kts 13°
2026-04-14 17:03 45.83114 26.80406 11243 ft 327 kts 13°
2026-04-14 17:03 45.85291 26.81377 11245 ft 327 kts 13°
2026-04-14 17:04 45.87463 26.82339 11252 ft 325 kts 13°
2026-04-14 17:04 45.89627 26.83294 11248 ft 325 kts 13°
2026-04-14 17:04 45.91798 26.84253 11252 ft 327 kts 13°
2026-04-14 17:04 45.93966 26.85213 11245 ft 326 kts 13°
2026-04-14 17:05 45.96141 26.86177 11251 ft 326 kts 13°
2026-04-14 17:05 45.98303 26.87138 11248 ft 326 kts 13°
2026-04-14 17:05 46.00468 26.88102 11243 ft 325 kts 14°
2026-04-14 17:05 46.02637 26.89070 11243 ft 325 kts 13°
2026-04-14 17:06 46.04792 26.90031 11242 ft 326 kts 14°
2026-04-14 17:06 46.06932 26.90987 11241 ft 325 kts 14°
2026-04-14 17:06 46.09095 26.91953 11241 ft 325 kts 14°
2026-04-14 17:06 46.11249 26.92916 11240 ft 325 kts 13°
2026-04-14 17:07 46.13414 26.93883 11244 ft 326 kts 14°
2026-04-14 17:07 46.15577 26.94851 11242 ft 326 kts 14°
2026-04-14 17:07 46.17744 26.95823 11243 ft 325 kts 14°
2026-04-14 17:07 46.19903 26.96792 11244 ft 325 kts 14°
2026-04-14 17:08 46.22070 26.97763 11242 ft 326 kts 14°
2026-04-14 17:08 46.24232 26.98735 11241 ft 326 kts 14°
2026-04-14 17:08 46.26391 26.99707 11240 ft 325 kts 14°
2026-04-14 17:08 46.28555 27.00680 11237 ft 326 kts 14°
2026-04-14 17:09 46.30719 27.01654 11242 ft 326 kts 14°
2026-04-14 17:09 46.32889 27.02632 11244 ft 326 kts 14°
2026-04-14 17:09 46.35025 27.03595 11242 ft 325 kts 14°
2026-04-14 17:09 46.37186 27.04571 11242 ft 326 kts 14°
2026-04-14 17:10 46.39349 27.05548 11241 ft 325 kts 14°
2026-04-14 17:10 46.41509 27.06525 11243 ft 325 kts 14°
2026-04-14 17:10 46.43673 27.07505 11241 ft 325 kts 14°
2026-04-14 17:10 46.45834 27.08483 11240 ft 325 kts 14°
2026-04-14 17:11 46.47987 27.09459 11240 ft 325 kts 14°
2026-04-14 17:11 46.50150 27.10440 11239 ft 325 kts 14°
2026-04-14 17:11 46.52303 27.11418 11243 ft 325 kts 14°
2026-04-14 17:11 46.54459 27.12396 11239 ft 325 kts 15°
2026-04-14 17:12 46.56607 27.13373 11241 ft 325 kts 15°
2026-04-14 17:12 46.58775 27.14360 11243 ft 325 kts 15°
2026-04-14 17:12 46.60932 27.15343 11241 ft 325 kts 15°
2026-04-14 17:12 46.63091 27.16329 11241 ft 324 kts 15°
2026-04-14 17:13 46.65247 27.17313 11246 ft 324 kts 15°
2026-04-14 17:13 46.67369 27.18282 11245 ft 324 kts 15°
2026-04-14 17:13 46.69518 27.19264 11246 ft 324 kts 15°
2026-04-14 17:13 46.71670 27.20248 11246 ft 324 kts 15°
2026-04-14 17:14 46.73818 27.21231 11249 ft 324 kts 15°
2026-04-14 17:14 46.75969 27.22217 11251 ft 324 kts 15°
2026-04-14 17:14 46.78118 27.23202 11252 ft 324 kts 15°
2026-04-14 17:14 46.80265 27.24188 11253 ft 323 kts 15°
2026-04-14 17:15 46.82415 27.25175 11249 ft 323 kts 15°
2026-04-14 17:15 46.84562 27.26163 11252 ft 323 kts 15°
2026-04-14 17:15 46.86706 27.27150 11254 ft 323 kts 15°
2026-04-14 17:15 46.88853 27.28138 11248 ft 323 kts 15°
2026-04-14 17:16 46.91001 27.29128 11252 ft 324 kts 15°
2026-04-14 17:16 46.93147 27.30118 11258 ft 323 kts 15°
2026-04-14 17:16 46.95296 27.31110 11257 ft 323 kts 15°
2026-04-14 17:16 46.97412 27.32087 11257 ft 323 kts 15°
2026-04-14 17:17 46.99636 27.32695 11259 ft 321 kts
2026-04-14 17:17 47.01833 27.32854 11260 ft 321 kts
2026-04-14 17:17 47.04095 27.32932 11261 ft 321 kts 360°
2026-04-14 17:17 47.06295 27.33034 11257 ft 321 kts
2026-04-14 17:18 47.08557 27.33184 11262 ft 321 kts
2026-04-14 17:18 47.10761 27.33363 11261 ft 321 kts
2026-04-14 17:18 47.12992 27.33563 11259 ft 321 kts
2026-04-14 17:18 47.15227 27.33770 11257 ft 321 kts
2026-04-14 17:19 47.17464 27.33978 11259 ft 322 kts
2026-04-14 17:19 47.19701 27.34186 11241 ft 322 kts
2026-04-14 17:19 47.21931 27.34394 10923 ft 322 kts
2026-04-14 17:19 47.24186 27.34601 10436 ft 323 kts
2026-04-14 17:20 47.26379 27.34804 10300 ft 309 kts
2026-04-14 17:20 47.28501 27.35001 9976 ft 302 kts
2026-04-14 17:20 47.30609 27.35196 9303 ft 306 kts
2026-04-14 17:20 47.32763 27.35425 8501 ft 314 kts
2026-04-14 17:21 47.34831 27.36505 7718 ft 320 kts 31°
2026-04-14 17:21 47.36457 27.38695 6966 ft 326 kts 53°
2026-04-14 17:21 47.37435 27.41720 6206 ft 330 kts 73°
2026-04-14 17:21 47.37952 27.45025 5573 ft 329 kts 79°
2026-04-14 17:22 47.38345 27.48294 5334 ft 316 kts 81°
2026-04-14 17:22 47.38697 27.51412 5260 ft 299 kts 81°
2026-04-14 17:22 47.39018 27.54295 5260 ft 280 kts 81°
2026-04-14 17:22 47.39320 27.57037 5273 ft 261 kts 82°
2026-04-14 17:23 47.39087 27.59562 5458 ft 260 kts 123°
2026-04-14 17:23 47.37631 27.61209 5032 ft 277 kts 163°
2026-04-14 17:23 47.35774 27.61176 5174 ft 259 kts 190°
2026-04-14 17:23 47.33967 27.60589 5562 ft 269 kts 191°
2026-04-14 17:24 47.32146 27.59945 5414 ft 270 kts 193°
2026-04-14 17:24 47.30342 27.59293 5207 ft 263 kts 193°
2026-04-14 17:24 47.28573 27.58651 4919 ft 257 kts 193°
2026-04-14 17:24 47.26883 27.58035 4762 ft 244 kts 193°
2026-04-14 17:25 47.25241 27.57520 4301 ft 243 kts 184°
2026-04-14 17:25 47.24134 27.57579 3889 ft 236 kts 169°
2026-04-14 17:25 47.22278 27.58602 3587 ft 190 kts 153°
2026-04-14 17:25 47.21187 27.59457 3466 ft 166 kts 150°
2026-04-14 17:26 47.20212 27.60174 3298 ft 150 kts 154°
2026-04-14 17:26 47.19592 27.60584 3208 ft 149 kts 155°
2026-04-14 17:26 47.18139 27.61553 3275 ft 193 kts 155°
2026-04-14 17:26 47.16892 27.62384 3266 ft 199 kts 156°
2026-04-14 17:27 47.16010 27.62775 3264 ft 201 kts 173°
2026-04-14 17:27 47.14653 27.62335 3270 ft 204 kts 209°
2026-04-14 17:27 47.13686 27.60803 3272 ft 208 kts 236°
2026-04-14 17:27 47.12940 27.59017 3265 ft 196 kts 237°
2026-04-14 17:28 47.12275 27.57338 3258 ft 189 kts 245°
2026-04-14 17:28 47.12181 27.55433 3269 ft 192 kts 285°
2026-04-14 17:28 47.12931 27.53841 3265 ft 193 kts 323°
2026-04-14 17:28 47.14043 27.52728 3265 ft 193 kts 327°
2026-04-14 17:29 47.15171 27.51643 3268 ft 194 kts 327°
2026-04-14 17:29 47.16303 27.50562 3266 ft 193 kts 327°
2026-04-14 17:29 47.17455 27.49535 3266 ft 194 kts 330°
2026-04-14 17:29 47.18614 27.48546 3263 ft 196 kts 330°
2026-04-14 17:30 47.19782 27.47550 3266 ft 194 kts 330°
2026-04-14 17:30 47.20945 27.46550 3264 ft 193 kts 330°
2026-04-14 17:30 47.22110 27.45548 3266 ft 194 kts 330°
2026-04-14 17:30 47.23274 27.44557 3262 ft 193 kts 330°
2026-04-14 17:31 47.24441 27.43564 3265 ft 193 kts 330°
2026-04-14 17:31 47.25635 27.42854 3260 ft 181 kts 358°
2026-04-14 17:31 47.26811 27.43353 3266 ft 178 kts 40°
2026-04-14 17:31 47.27446 27.44839 3261 ft 172 kts 83°
2026-04-14 17:32 47.27238 27.46398 3256 ft 150 kts 128°
2026-04-14 17:32 47.26633 27.47528 3239 ft 139 kts 109°
2026-04-14 17:32 47.26445 27.48960 3265 ft 145 kts 100°
2026-04-14 17:32 47.26397 27.50405 3271 ft 142 kts 86°
2026-04-14 17:33 47.26510 27.51855 3257 ft 141 kts 89°
2026-04-14 17:33 47.26333 27.53203 3051 ft 133 kts 112°
2026-04-14 17:33 47.25966 27.54483 2639 ft 136 kts 116°
2026-04-14 17:34 47.24792 27.56621 2244 ft 133 kts 132°
2026-04-14 17:34 47.24060 27.57442 1991 ft 133 kts 150°
2026-04-14 17:34 47.23249 27.58122 1879 ft 135 kts 150°
2026-04-14 17:34 47.22419 27.58796 1788 ft 138 kts 151°
2026-04-14 17:35 47.21553 27.59424 1412 ft 140 kts 153°
2026-04-14 17:35 47.20658 27.60026 1024 ft 138 kts 156°
2026-04-14 17:35 47.19817 27.60608 773 ft 133 kts 154°
2026-04-14 17:35 47.18988 27.61201 518 ft 132 kts 153°
2026-04-14 17:36 47.18164 27.61794 398 ft 124 kts 154°
2026-04-14 17:36 47.17672 27.62147 387 ft 45 kts 154°
2026-04-14 17:36 47.17605 27.62196 386 ft 3 kts 154°
2026-04-14 17:36 47.17533 27.62247 386 ft 20 kts 154°
2026-04-14 17:37 47.17502 27.62252 386 ft 2 kts 231°
2026-04-14 17:37 47.17472 27.62156 385 ft 16 kts 258°
2026-04-14 17:37 47.17530 27.62072 385 ft 12 kts 338°
2026-04-14 17:37 47.17608 27.62006 386 ft 12 kts 300°
2026-04-14 17:38 47.17598 27.61925 386 ft 0 kts 248°